sat.trackr.live / text

‹ back to catalog

INTELSAT 30 (IS-30)

NORAD 40271 · 2014-062A

PAYLOAD ACTIVE UNKNOWN

§ Identity

Operator
Country
ITSO
Launch date
2014-10-16
Launch site
FRGUI
Launch vehicle
Mass (kg)
RCS (m²)
316.36

Purposes: comms

External: N2YO · Heavens-Above · Gunter

§ Orbital elements

Epoch: 2026-09-18T22:32:35.965824Z

Period
1,436.08 min
Inclination
0.0138°
Eccentricity
0.0001771
Mean motion
1.00272674 rev/d
Perigee alt
35,778.9 km
Apogee alt
35,793.8 km
Semi-major
42,164.5 km
B*
0.0000e+0
RAAN
109.1597°
Arg perigee
302.9282°
Mean anomaly
188.8874°
Rev number
773

§ Raw data

INTELSAT 30 (IS-30)1 40271U 14062A   26261.93930516 -.00000155  00000+0  00000+0 0  99902 40271   0.0138 109.1597 0001771 302.9282 188.8874  1.00272674  7732

JSON: /api/v1/satellites/40271 · /tle

For live sub-satellite position, see the globe view (requires WebGL).

§ Visibility from observer

Set your observer location to see the next 7 days of passes ≥ 10°. The values pass through the URL so the page stays shareable.

No JS? Fill the form by hand. The geolocation button needs JavaScript.